Weather in Manturovo

Russia / Kostroma Oblast     58°19′43″N   44°45′26″E
temp.,
°C
wind,
m/s
gust,
m/s
humid.,
%
clouds,
%
prec.,
mm/h
press.,
hPa
HPBL,
m
25 january, tue
tue2500:00−14sw3129790 0.0 1030245
03:00−14ssw3139794 0.0 1029257
06:00−14ssw3129899 0.0 1027245
09:00−14ssw3129899 0.0 1025245
12:00−9ssw41395100 0.0 1022377
15:00−9ssw412895 0.0 1020451
18:00−11ssw4129319 0.0 1019339
21:00−12ssw31095100 0.0 1018284
26 january, wed
wed2600:00−13s2897100 0.0 1017231
03:00−13s2698100 0.1 1016181
06:00−13s1498100 0.1 1016106
09:00−11s1496100 0.5 1015185
12:00−9ssw1291100 0.3 1015348
15:00−9s119496 0.6 1016230
18:00−12sse119999 0.1 101611
21:00−15wnw1110092 0.1 101610
27 january, thu
thu2700:00−18nw1110095 0.1 10169
03:00−16ssw009986 0.1 101614
06:00−19sw1110086 0.1 10169
09:00−20ssw1110093 0.1 101612
12:00−12ssw2494100 0.0 1015230
15:00−11s1296100 0.1 101461
18:00−14s259889 0.1 1014106
21:00−16s2799100 0.1 1013135
28 january, fri
fri2800:00−17sse2799100 0.0 1013150
03:00−16sse31097100 0.1 1012225
06:00−15sse31096100 0.0 1011248
09:00−14sse41195100 0.0 1011308
12:00−10sse4119399 0.0 1011400
15:00−9sse41192100 0.1 1010549
18:00−8sse41192100 0.0 1009513
21:00−9sse41093100 0.1 1009466
29 january, sat
sat2900:00−9sse41093100 0.0 1009432
03:00−9se3994100 0.1 1008401
06:00−10se3995100 0.1 1008344
09:00−10ese3995100 0.4 1007374
12:00−8se3793100 0.4 1006411
15:00−7se2595100 0.8 1005374
18:00−10ese139791 0.3 100464
21:00−10se129784 0.6 100351